Spokane Felts, WA

1:27 PM PDT on June 25, 2018 (GMT -0700)
Felts

Weather History for KSFF - November, 2017

Change the Weather History Date:

Wednesday, November 15, 2017

  Actual Average Record
Temperature  
Mean Temperature 43 °F 37 °F  
Max Temperature 51 °F 44 °F 61 °F (2015)
Min Temperature 35 °F 31 °F 11 °F (2014)
Degree Days  
Heating Degree Days 22 28  
Month to date heating degree days 384 380  
Since 1 July heating degree days 1055 1117  
Cooling Degree Days 0 0  
Month to date cooling degree days 0 0  
Year to date cooling degree days 753 406  
Moisture  
Dew Point 34 °F    
Average Humidity 71    
Maximum Humidity 92    
Minimum Humidity 50    
Precipitation  
Precipitation 0.09 in 0.07 in 0.35 in (2016)
Month to date precipitation 1.39 1.05  
Year to date precipitation 17.09 14.00  
Sea Level Pressure  
Sea Level Pressure 29.71 in    
Wind  
Wind Speed 4 mph (SSE)    
Max Wind Speed 20 mph    
Max Gust Speed 27 mph    
Visibility 10 miles    
Events Rain    
T = Trace of Precipitation, MM = Missing Value Source: NWS Daily Summary

Daily Weather History Graph

Daily Weather History Graph

Search for Another Location

Airport or City:

Astronomy

Nov. 15, 2017 Rise Set
Actual Time 6:55 AM PST 4:12 PM PST
Civil Twilight 6:21 AM PST 4:45 PM PST
Nautical Twilight 5:43 AM PST 5:23 PM PST
Astronomical Twilight 5:07 AM PST 5:59 PM PST
Moon 3:43 AM PST (11/15) 3:24 PM PST (11/15)
Length of Visible Light 10h 24m
Length of Day
9h 16m
Waning Crescent, 7% of the Moon is Illuminated
Nov 15
Waning Crescent
Nov 18
New
Nov 26
First Quarter
Dec 3
Full
Dec 9
Last Quarter

Hourly Weather History & Observations

Time (PST) Temp. Windchill Dew Point Humidity Pressure Visibility Wind Dir Wind Speed Gust Speed Precip Events Conditions
1:53 AM 39.0 °F 34.8 °F 30.0 °F 70% 29.96 in 10.0 mi East 5.8 mph - N/A   Partly Cloudy
2:53 AM 37.9 °F 32.7 °F 30.0 °F 73% 29.94 in 10.0 mi ESE 6.9 mph - N/A   Partly Cloudy
3:53 AM 36.0 °F - 30.9 °F 82% 29.92 in 10.0 mi Calm Calm - N/A   Clear
4:53 AM 36.0 °F - 30.9 °F 82% 29.91 in 10.0 mi Calm Calm - N/A   Partly Cloudy
5:53 AM 37.0 °F - 32.0 °F 82% 29.88 in 10.0 mi Calm Calm - N/A   Overcast
6:53 AM 36.0 °F 33.3 °F 30.0 °F 79% 29.86 in 10.0 mi ESE 3.5 mph - N/A   Mostly Cloudy
7:53 AM 37.0 °F - 28.9 °F 73% 29.86 in 10.0 mi Calm Calm - N/A   Clear
8:53 AM 44.1 °F 40.1 °F 30.0 °F 58% 29.83 in 10.0 mi East 6.9 mph - N/A   Scattered Clouds
9:53 AM 46.0 °F 41.9 °F 30.9 °F 56% 29.82 in 10.0 mi East 8.1 mph - N/A   Scattered Clouds
10:53 AM 48.9 °F - 32.0 °F 52% 29.79 in 10.0 mi East 10.4 mph - N/A   Mostly Cloudy
11:53 AM 50.0 °F - 32.0 °F 50% 29.76 in 10.0 mi East 6.9 mph - N/A   Mostly Cloudy
12:53 PM 50.0 °F - 33.1 °F 52% 29.72 in 10.0 mi Calm Calm - N/A   Overcast
1:53 PM 50.0 °F - 33.1 °F 52% 29.71 in 10.0 mi SW 9.2 mph - N/A   Overcast
2:53 PM 48.9 °F - 35.1 °F 59% 29.70 in 10.0 mi West 4.6 mph - 0.00 in Rain Light Rain
3:53 PM 48.0 °F - 36.0 °F 63% 29.67 in 10.0 mi SW 4.6 mph - 0.00 in   Overcast
4:53 PM 46.0 °F - 37.9 °F 73% 29.62 in 10.0 mi Calm Calm - N/A   Overcast
5:53 PM 45.0 °F - 37.9 °F 76% 29.61 in 10.0 mi Calm Calm - 0.00 in Rain Light Rain
6:53 PM 45.0 °F - 37.9 °F 76% 29.57 in 10.0 mi Calm Calm - 0.00 in   Overcast
7:53 PM 43.0 °F 38.8 °F 37.9 °F 82% 29.57 in 10.0 mi West 6.9 mph - N/A   Overcast
8:53 PM 41.0 °F - 37.9 °F 89% 29.54 in 10.0 mi Calm Calm - 0.01 in   Overcast
9:27 PM 41.0 °F - 37.9 °F 89% 29.53 in 9.0 mi Calm Calm - N/A   Overcast
9:53 PM 39.9 °F 35.8 °F 37.9 °F 93% 29.53 in 9.0 mi South 5.8 mph - 0.00 in Rain Light Rain
10:18 PM 39.9 °F 35.1 °F 37.9 °F 93% 29.51 in 9.0 mi WSW 6.9 mph - 0.00 in Rain Light Rain
10:53 PM 39.9 °F 35.8 °F 37.9 °F 93% 29.51 in 6.0 mi SW 5.8 mph - 0.03 in Rain Light Rain
11:53 PM 39.0 °F 36.8 °F 37.9 °F 96% 29.49 in 6.0 mi WSW 3.5 mph - 0.04 in Rain Light Rain